Waarnemingen

Advertentie
Mijn weer
Dunkerque, Frankrijk (7010): temperatuur & dauwpunt: 12.11.2017 03:00:00 - 18.11.2017 03:00:00 (CET)Dunkerque, Frankrijk (7010): windsnelheid & windstoten: 12.11.2017 03:00:00 - 18.11.2017 03:00:00 (CET)Dunkerque, Frankrijk (7010): windrichting: 12.11.2017 03:00:00 - 18.11.2017 03:00:00 (CET)Dunkerque, Frankrijk (7010): luchtdruk: 12.11.2017 03:00:00 - 18.11.2017 03:00:00 (CET)Dunkerque, Frankrijk (7010): zicht: 12.11.2017 03:00:00 - 18.11.2017 03:00:00 (CET)Dunkerque, Frankrijk (7010): neerslag: 12.11.2017 03:00:00 - 18.11.2017 03:00:00 (CET)
Datum & Tijd tt [°C] td [°C] ff [km/u] ff [kn] fx [km/u] fx [kn] dd ppp [hPa] vv [km] rr [mm]
18.11.2017 03:00:00 7,5 1,8 10 5 30 16 ZW 1025,6 - 0,0
18.11.2017 02:00:00 8,0 0,9 14 8 29 16 W 1026,2 - 0,0
18.11.2017 01:00:00 7,9 2,1 10 5 25 14 WZW 1026,7 20 0,0
18.11.2017 00:00:00 7,2 2,1 8 4 16 9 ZW 1026,8 - 0,0
17.11.2017 23:00:00 8,1 0,1 14 7 23 12 WNW 1027,1 - 0,0
17.11.2017 22:00:00 8,1 0,3 13 7 20 11 WNW 1027,5 25 0,0
17.11.2017 21:00:00 8,3 -0,2 13 7 17 9 WNW 1027,6 - 0,0
17.11.2017 20:00:00 8,2 0,2 8 4 17 9 WNW 1027,4 - 0,0
17.11.2017 19:00:00 8,5 -0,5 8 4 14 7 WNW 1027,7 - 0,0
17.11.2017 18:00:00 8,8 0,2 9 5 16 9 NNW 1027,9 - 0,0
17.11.2017 17:00:00 8,9 -0,2 10 5 15 8 NNW 1028,1 - 0,0
17.11.2017 16:00:00 9,5 1,6 10 5 17 9 NNW 1028,3 - 0,0
17.11.2017 15:00:00 9,9 1,8 10 5 16 9 NW 1028,3 - 0,0
17.11.2017 14:00:00 9,8 1,9 12 7 17 9 NNW 1028,7 - 0,0
17.11.2017 13:00:00 9,8 2,6 13 7 18 10 NNW 1029,0 25 0,0
17.11.2017 12:00:00 10,4 2,7 10 5 17 9 N 1029,0 - 0,0
17.11.2017 11:00:00 10,3 2,6 8 4 14 7 N 1029,0 - 0,0
17.11.2017 10:00:00 10,3 1,6 7 4 12 7 N 1029,1 25 0,0
17.11.2017 09:00:00 9,5 1,6 8 4 20 11 N 1028,8 - 0,0
17.11.2017 08:00:00 9,2 1,4 8 4 16 9 NNO 1028,4 - 0,0
17.11.2017 07:00:00 9,4 2,0 12 7 20 11 NNO 1028,1 15 0,0
17.11.2017 06:00:00 9,9 2,7 16 9 25 14 NNO 1027,7 - 0,0
17.11.2017 05:00:00 10,0 2,6 19 10 29 16 NNO 1027,3 - 0,0
17.11.2017 04:00:00 10,3 2,6 17 9 27 15 NNO 1027,3 10 0,0
17.11.2017 03:00:00 10,4 4,1 21 11 30 16 NNO 1027,0 - 0,0
17.11.2017 02:00:00 10,7 4,8 21 11 29 16 NNO 1026,8 - 0,0
17.11.2017 01:00:00 10,9 5,6 21 11 31 17 NNO 1026,6 - 0,0
17.11.2017 00:00:00 11,0 6,1 22 12 31 17 N 1026,2 - 0,2
16.11.2017 23:00:00 10,6 7,1 16 9 38 20 NNO 1025,9 - 0,2
16.11.2017 22:00:00 10,4 8,5 23 13 35 19 NNO 1025,5 - 0,0
16.11.2017 21:00:00 11,9 8,9 17 9 28 15 NW 1024,8 - 0,0
16.11.2017 20:00:00 12,4 10,1 16 9 26 14 W 1024,1 - 0,0
16.11.2017 19:00:00 12,6 9,4 17 9 33 18 W 1023,7 - 0,0
16.11.2017 18:00:00 12,7 9,7 20 11 32 17 W 1023,2 - 0,0
16.11.2017 17:00:00 12,5 10,0 20 11 34 18 W 1023,1 - 0,0
16.11.2017 16:00:00 12,6 9,6 6 4 22 12 WZW 1022,8 10 0,0
16.11.2017 15:00:00 12,6 9,6 12 7 33 18 WZW 1022,5 - 0,0
16.11.2017 14:00:00 12,7 9,3 19 10 35 19 W 1022,7 - 0,0
16.11.2017 13:00:00 12,7 9,7 21 11 34 18 W 1023,0 12 0,0
16.11.2017 12:00:00 11,8 10,2 16 9 23 12 ZZW 1023,2 - 0,0
16.11.2017 11:00:00 11,4 9,8 12 7 25 14 ZZW 1023,2 - 0,0
16.11.2017 10:00:00 10,9 9,5 14 8 24 13 ZZW 1023,2 - 0,0
16.11.2017 09:00:00 10,6 9,2 14 8 24 13 ZZW 1022,9 - 0,0
16.11.2017 08:00:00 10,7 9,3 14 8 23 13 ZZW 1022,4 - 0,0
16.11.2017 07:00:00 10,7 9,3 14 7 20 11 ZZW 1022,1 10 0,0
16.11.2017 06:00:00 10,5 9,3 13 7 19 10 ZZW 1022,0 - 0,0
16.11.2017 05:00:00 10,1 9,0 13 7 19 10 Z 1022,3 - 0,0
16.11.2017 04:00:00 10,1 9,0 13 7 19 10 Z 1022,6 - 0,0
16.11.2017 03:00:00 10,1 9,0 11 6 21 11 Z 1023,2 - 0,0
16.11.2017 02:00:00 10,3 9,2 12 7 20 11 Z 1023,2 - 0,0
16.11.2017 01:00:00 10,4 9,3 9 5 16 9 Z 1023,6 - 0,0
16.11.2017 00:00:00 10,6 9,7 11 6 15 8 ZZO 1023,8 - 0,2
15.11.2017 23:00:00 10,9 10,0 9 5 21 11 Z 1024,0 - 0,4
15.11.2017 22:00:00 11,1 10,0 12 6 18 10 ZZW 1024,2 6 0,4
15.11.2017 21:00:00 11,5 10,4 10 5 20 11 ZZW 1024,5 - 0,6
15.11.2017 20:00:00 11,7 10,1 13 7 22 12 ZZW 1024,4 - 0,0
15.11.2017 19:00:00 11,8 9,7 12 7 19 11 ZZW 1024,3 15 0,0
15.11.2017 18:00:00 12,0 9,4 10 6 17 9 Z 1024,3 - 0,0
15.11.2017 17:00:00 12,4 9,6 10 5 16 8 ZZO 1024,3 - 0,0
15.11.2017 16:00:00 12,5 9,9 7 4 12 7 Z 1024,7 - 0,0
15.11.2017 15:00:00 13,1 9,2 4 2 22 12 WNW 1024,7 - 0,0
15.11.2017 14:00:00 14,1 9,5 14 7 22 12 Z 1024,4 - 0,0
15.11.2017 13:00:00 14,2 9,6 13 7 20 11 ZZW 1024,8 - 0,0
15.11.2017 12:00:00 13,3 10,1 5 3 15 8 WZW 1025,1 - 0,0
15.11.2017 11:00:00 11,6 9,3 4 2 9 5 WZW 1025,6 - 0,0
15.11.2017 10:00:00 10,7 9,3 2 1 16 9 ZW 1025,3 12 0,0
15.11.2017 09:00:00 10,5 9,4 10 6 18 10 ZZW 1025,3 - 0,0
15.11.2017 08:00:00 10,6 9,4 13 7 19 10 ZZW 1024,9 - 0,0
15.11.2017 07:00:00 11,2 9,9 10 5 22 12 ZW 1024,5 15 0,0
15.11.2017 06:00:00 11,3 9,4 9 5 21 11 W 1024,3 - 0,0
15.11.2017 05:00:00 10,6 8,9 9 5 18 10 ZZW 1024,2 - 0,0
15.11.2017 04:00:00 10,8 9,1 7 4 14 8 WZW 1024,3 - 0,0
15.11.2017 03:00:00 10,6 9,2 9 5 16 8 ZZW 1024,6 - 0,0
15.11.2017 02:00:00 10,5 8,9 5 3 14 8 WZW 1024,6 - 0,0
15.11.2017 01:00:00 11,6 9,3 6 4 23 12 WZW 1024,6 - 0,0
15.11.2017 00:00:00 10,5 8,9 6 3 14 8 WZW 1024,6 - 0,0
14.11.2017 23:00:00 10,5 8,9 4 2 18 10 WZW 1024,6 - 0,0
14.11.2017 22:00:00 10,6 8,7 12 6 20 11 Z 1024,5 15 0,0
14.11.2017 21:00:00 11,0 8,7 6 4 18 10 WZW 1024,7 - 0,0
14.11.2017 20:00:00 11,2 8,6 7 4 16 9 ZW 1024,5 - 0,0
14.11.2017 19:00:00 10,9 8,3 8 4 19 10 ZW 1024,3 - 0,0
14.11.2017 18:00:00 11,8 8,6 9 5 30 16 WZW 1024,1 - 0,0
14.11.2017 17:00:00 11,4 8,8 17 9 33 18 W 1023,9 - 0,0
14.11.2017 16:00:00 11,0 8,6 21 11 32 17 W 1024,0 - 0,0
14.11.2017 15:00:00 10,8 8,6 21 11 37 20 W 1023,9 - 0,0
14.11.2017 14:00:00 10,9 7,8 22 12 44 24 W 1024,1 - 0,0
14.11.2017 13:00:00 10,7 8,1 27 15 45 24 W 1024,3 - 0,0
14.11.2017 12:00:00 9,7 5,5 18 10 26 14 ZZW 1024,6 - 0,0
14.11.2017 11:00:00 8,9 4,7 14 8 21 12 Z 1024,9 - 0,0
14.11.2017 10:00:00 7,7 3,5 16 9 24 13 Z 1024,6 - 0,0
14.11.2017 09:00:00 6,5 2,8 16 9 21 11 Z 1024,5 - 0,0
14.11.2017 08:00:00 6,7 1,8 16 9 24 13 Z 1024,2 - 0,0
14.11.2017 07:00:00 6,4 2,7 15 8 24 13 ZZW 1024,0 - 0,0
14.11.2017 06:00:00 5,9 2,5 13 7 21 11 ZW 1024,1 - 0,0
14.11.2017 05:00:00 5,5 2,7 13 7 22 12 ZW 1024,5 - 0,0
14.11.2017 04:00:00 5,9 3,1 13 7 21 12 ZW 1024,8 - 0,0
14.11.2017 03:00:00 6,4 3,2 11 6 20 11 ZW 1025,3 - 0,0
14.11.2017 02:00:00 7,4 3,1 10 5 25 13 ZW 1025,1 - 0,0
14.11.2017 01:00:00 8,3 3,3 17 9 24 13 WNW 1025,5 16 0,0
14.11.2017 00:00:00 8,3 2,5 13 7 21 11 NW 1025,6 - 0,0
13.11.2017 23:00:00 8,6 3,2 15 8 21 11 NW 1025,7 - 0,0
13.11.2017 22:00:00 8,8 3,2 13 7 31 17 NNW 1025,7 - 0,0
13.11.2017 21:00:00 9,0 3,8 21 12 31 17 NNW 1025,4 - 0,0
13.11.2017 20:00:00 9,1 3,7 21 11 33 18 NNW 1025,3 - 0,0
13.11.2017 19:00:00 9,1 3,7 23 13 37 20 NNW 1025,2 - 0,0
13.11.2017 18:00:00 9,1 3,5 29 15 43 23 NNW 1024,8 - 0,0
13.11.2017 17:00:00 9,2 3,8 29 16 41 22 NNW 1024,3 - 0,0
13.11.2017 16:00:00 9,2 3,6 28 15 44 24 N 1023,8 16 0,0
13.11.2017 15:00:00 9,2 4,8 28 15 44 24 NNW 1023,8 - 0,0
13.11.2017 14:00:00 9,3 4,7 27 14 46 25 NNW 1023,6 - 0,0
13.11.2017 13:00:00 9,2 4,4 29 16 49 26 NNW 1023,5 - 0,0
13.11.2017 12:00:00 9,0 5,2 31 17 51 27 NNW 1023,3 - 0,0
13.11.2017 11:00:00 8,9 4,7 33 18 49 26 NNW 1022,9 - 0,0
13.11.2017 10:00:00 8,8 4,4 34 18 55 30 N 1022,6 16 0,0
13.11.2017 09:00:00 8,8 4,6 33 18 56 31 NNW 1021,6 - 0,0
13.11.2017 08:00:00 8,6 4,8 38 20 60 32 NNW 1021,0 - 0,0
13.11.2017 07:00:00 8,3 4,7 40 22 61 33 NNW 1020,5 - 0,0
13.11.2017 06:00:00 8,3 4,9 41 22 63 34 NNW 1019,6 - 0,0
13.11.2017 05:00:00 8,2 4,8 40 22 64 35 NNW 1019,2 - 0,0
13.11.2017 04:00:00 8,8 4,4 44 24 66 35 NNW 1018,4 16 0,0
13.11.2017 03:00:00 8,5 4,3 44 24 74 40 NNW 1017,6 - 0,0
13.11.2017 02:00:00 8,7 5,3 50 27 72 39 NNW 1016,8 - 0,0
13.11.2017 01:00:00 9,0 5,0 44 24 74 40 NNW 1016,1 - 0,2
13.11.2017 00:00:00 7,8 5,6 47 25 72 39 NNW 1015,5 - 2,0
12.11.2017 23:00:00 9,4 5,4 44 24 78 42 NNW 1014,5 - 0,0
12.11.2017 22:00:00 8,9 5,1 52 28 76 41 NNW 1013,5 - 0,4
12.11.2017 21:00:00 9,1 4,5 46 25 76 41 NNW 1012,3 - 0,2
12.11.2017 20:00:00 9,3 4,7 52 28 80 43 NNW 1011,0 - 0,0
12.11.2017 19:00:00 9,1 4,3 50 27 80 43 NNW 1009,9 18 0,0
12.11.2017 18:00:00 8,8 3,4 50 27 85 46 NNW 1009,0 - 0,0
12.11.2017 17:00:00 8,2 3,8 55 30 85 46 NNW 1007,8 - 0,0
12.11.2017 16:00:00 7,7 3,4 54 29 80 43 NW 1007,0 10 0,0
12.11.2017 15:00:00 8,4 1,8 45 24 74 40 NW 1006,6 - 0,0
12.11.2017 14:00:00 8,6 1,0 41 22 72 39 NW 1006,1 - 0,0
12.11.2017 13:00:00 8,6 1,9 39 21 65 35 NW 1005,4 15 0,0
12.11.2017 12:00:00 8,4 2,2 42 23 63 34 NW 1005,4 - 0,0
12.11.2017 11:00:00 9,1 3,7 36 19 58 31 NW 1004,9 - 0,0
12.11.2017 10:00:00 9,1 3,5 30 16 48 26 NW 1005,1 - 0,0
12.11.2017 09:00:00 9,1 2,4 20 11 38 20 NW 1005,2 - 0,0
12.11.2017 08:00:00 8,2 3,2 27 14 42 23 NW 1005,6 - 1,9
12.11.2017 07:00:00 7,7 4,5 26 14 37 20 NW 1006,0 - 2,2
12.11.2017 06:00:00 8,2 5,7 18 10 27 15 W 1006,1 - 2,2
12.11.2017 05:00:00 8,4 5,9 8 5 15 8 W 1007,1 - 1,2
12.11.2017 04:00:00 8,3 5,4 4 2 14 8 W 1008,0 - 0,2
12.11.2017 03:00:00 8,2 5,0 9 5 16 9 ZZW 1009,2 - 0,0

tt = temperatuur
td = dauwpunt
ff = windsnelheid
fx = windstoten
dd = windrichting
ppp = luchtdruk
vv = zicht
rr = neerslag

Weerstations in de omgeving